www.pogodaiklimat.ru

Погода и климат >> Архив погоды >> Польша >> Nowy Sacz


ПОГОДА в Nowy Sacz

  • Прогноз погоды в Nowy Sacz
  • Монитор погоды в Nowy Sacz
  • Климат города

АРХИВ ПОГОДЫ в Nowy Sacz

Время (UTC), дата Ветер
(напр.,м/с)
 
Видим.   Явления Облачность Т
(С)
Тd
(С)
f
(%)
Тe
(С)
Тes
(С)
Комфортность P
(гПа)
Po
(гПа)
Тmin
(С)
Tmax
(С)
R
(мм)
R24
(мм)
S
(см)
19 10.10 Ю 1 22 км н/о +10.6 +6.9 78 +10 +10 1018.2 982.9
20 10.10 Ю 2 35 км н/о +10.5 +7.2 80 +9 +9 1018.3 983.0
21 10.10 Ю 2 35 км н/о +10.6 +7.5 81 +9 +9 1018.4 983.1
22 10.10 Ю 1 40 км ливневой дождь н/о +10.3 +7.5 83 +10 +10 1018.6 983.2
23 10.10 ЮЗ 2 40 км н/о +10.5 +7.9 84 +9 +9 1018.6 983.3
00 11.10 ЮВ 1 18 км н/о +10.5 +7.7 83 +10 +10 1018.4 983.1 0.0
01 11.10 ЮВ 1 30 км н/о +10.4 +7.8 84 +10 +10 1018.4 983.1
02 11.10 Ю 2 45 км н/о +11.4 +7.9 79 +10 +10 1018.4 983.2
03 11.10 ЮЗ 2 40 км н/о +10.7 +7.6 81 +9 +9 1018.4 983.1
04 11.10 В 1 21 км н/о +10.3 +7.7 84 +10 +10 1018.2 982.9
05 11.10 Ю 1 16 км н/о +10.3 +7.7 84 +10 +10 1018.7 983.3
06 11.10 Ю 1 40 км н/о +11.5 +8.2 80 +11 +11 1018.7 983.5 +9.9 +11.6 0.0
07 11.10 ЮЗ 2 40 км н/о +12.7 +9.0 78 +12 +12 1018.9 983.8
08 11.10 ЮЗ 3 35 км н/о +13.7 +8.5 71 +13 +13 1019.1 984.1
09 11.10 ЮЗ 3 40 км н/о +14.0 +8.8 71 +13 +13 1019.2 984.3
10 11.10 ЮЗ 4
{8}
40 км н/о +15.3 +9.0 66 +14 +14 1019.1 984.3
11 11.10 ЮЗ 4-9
{10}
35 км н/о +15.8 +9.2 65 +15 +15 1018.6 983.9
12 11.10 ЮЗ 4
{10}
50 км н/о +15.5 +9.4 67 +15 +15 1018.7 984.0
13 11.10 ЮЗ 3 45 км н/о +15.2 +9.1 67 +15 +15 1018.9 984.1
14 11.10 ЮЗ 4 40 км ливневой дождь н/о +15.2 +9.1 67 +14 +14 1018.7 983.9
15 11.10 ЮЗ 3
{8}
40 км н/о +14.7 +8.9 68 +14 +14 1018.9 984.1
16 11.10 ЮЗ 3 30 км н/о +14.4 +9.0 70 +14 +14 1019.1 984.2
17 11.10 ЮЗ 3 25 км н/о +14.0 +9.2 73 +13 +13 1019.4 984.5
18 11.10 З 2
{8}
29 км н/о +13.6 +9.2 75 +13 +13 1019.6 984.6 +11.5 +16.0 0.0
19 11.10 Ю 1 26 км н/о +13.3 +9.4 77 +14 +14 1019.6 984.6
20 11.10 ЮЗ 1 30 км н/о +12.6 +9.2 80 +13 +13 1019.9 984.8
21 11.10 З 1 7000 м дымка н/о +11.6 +8.8 83 +11 +11 1019.9 984.7
22 11.10 Ю 2 26 км н/о +12.8 +9.4 80 +12 +12 1019.6 984.5
23 11.10 Ю 1 15 км н/о +11.7 +9.1 84 +12 +12 1019.6 984.4
00 12.10 В 1 15 км н/о +11.0 +8.9 87 +11 +11 1019.7 984.4
01 12.10 В 1 12 км н/о +9.7 +8.1 90 +9 +9 1019.7 984.2
02 12.10 СВ 1 17 км н/о +9.5 +8.3 92 +9 +9 1019.6 984.1
03 12.10 В 1 11 км н/о +9.3 +7.9 91 +9 +9 1019.5 984.0
04 12.10 В 1 11 км дымка н/о +8.8 +7.9 94 +8 +8 1019.5 983.9
05 12.10 В 1 9000 м дымка н/о +9.0 +8.1 94 +8 +8 1019.4 983.9
06 12.10 В 1 7000 м дымка н/о +9.6 +8.5 93 +9 +9 1019.5 984.0 +8.4 +13.6
07 12.10 Ю 1 14 км н/о +11.6 +9.8 89 +11 +11 1019.4 984.2
08 12.10 ЮВ 1 23 км н/о +16.2 +10.5 69 +17 +17 1018.8 984.1
09 12.10 ЮЗ 3 40 км н/о +17.5 +9.4 59 +18 +18 1018.3 983.8
10 12.10 ЮЗ 3
{8}
30 км н/о +18.4 +9.5 56 +19 +19 1018.0 983.6
11 12.10 ЮЗ 4
{9}
35 км н/о +19.1 +9.0 52 +20 +20 1017.4 983.1
12 12.10 ЮЗ 4-9
{9}
35 км н/о +19.7 +9.3 51 +21 +21 комфорт 1016.9 982.7
13 12.10 З 4 29 км н/о +20.1 +9.0 49 +21 +21 комфорт 1017.1 983.0
14 12.10 ЮЗ 4 30 км н/о +18.9 +9.1 53 +19 +19 1017.4 983.1
15 12.10 ЮЗ 4
{10}
28 км н/о +17.4 +8.8 57 +17 +17 1018.0 983.5
16 12.10 З 4
{9}
14 км н/о +17.0 +9.4 61 +17 +17 1018.8 984.2
17 12.10 Ю 2 23 км н/о +15.6 +9.5 67 +16 +16 1019.0 984.3
18 12.10 Ю 1
{10}
15 км н/о +14.6 +9.4 71 +15 +15 1019.7 984.8 +9.7 +20.6 0.0
19 12.10 Ю 2 24 км н/о +14.6 +9.6 72 +14 +14 1019.9 985.0
20 12.10 ЮЗ 2 30 км н/о +14.3 +9.7 74 +14 +14 1020.0 985.1
21 12.10 З 4
{9}
40 км н/о +15.7 +8.9 64 +15 +15 1020.0 985.2
22 12.10 З 4-9
{11}
26 км ливневой дождь н/о +14.0 +8.6 70 +13 +13 1021.1 986.1
23 12.10 З 3
{8}
35 км н/о +13.4 +7.4 67 +12 +12 1021.6 986.5
00 13.10 З 2
{11}
30 км н/о +12.1 +7.2 72 +11 +11 1022.0 986.7 0.0
01 13.10 З 2 30 км н/о +12.4 +5.5 63 +12 +12 1021.9 986.7
02 13.10 З 4 30 км н/о +12.8 +5.0 59 +11 +11 1021.9 986.7
03 13.10 З 5-12
{12}
28 км н/о +12.6 +5.3 61 +11 +11 1022.2 987.0
04 13.10 З 3
{11}
23 км н/о +11.1 +5.4 68 +9 +9 1022.2 986.8
05 13.10 З 3 20 км н/о +11.4 +6.3 71 +10 +10 1022.6 987.2
06 13.10 З 4
{12}
28 км н/о +11.7 +5.6 66 +10 +10 1022.9 987.6 +10.7 +16.1 0.0
07 13.10 З 5
{12}
23 км н/о +12.0 +5.4 64 +10 +10 1023.2 987.9
08 13.10 З 5
{13}
25 км н/о +12.0 +5.8 66 +10 +10 1023.5 988.2
09 13.10 З 2
{13}
23 км н/о +12.4 +6.0 65 +12 +12 1023.5 988.2
10 13.10 З 6-11
{11}
30 км н/о +12.9 +5.3 60 +11 +11 1023.6 988.4
11 13.10 З 6
{11}
29 км н/о +13.1 +5.0 58 +11 +11 1023.5 988.3
12 13.10 З 6-11
{13}
27 км н/о +13.2 +4.9 57 +11 +11 1023.5 988.3
13 13.10 З 5-10
{12}
25 км н/о +13.4 +5.3 58 +12 +12 1023.6 988.4
14 13.10 З 5
{10}
25 км н/о +13.7 +5.3 57 +12 +12 1023.7 988.6
15 13.10 З 3
{12}
24 км н/о +13.2 +5.8 61 +12 +12 1023.9 988.7
16 13.10 З 2
{8}
15 км н/о +12.0 +5.4 64 +11 +11 1024.1 988.8
17 13.10 З 2 14 км н/о +12.0 +5.8 66 +11 +11 1024.7 989.3
18 13.10 З 2
{12}
14 км н/о +11.9 +6.2 68 +11 +11 1024.9 989.5 +11.7 +14.0
19 13.10 З 3 5000 м дымка н/о +11.1 +7.0 76 +9 +9 1025.3 989.8
20 13.10 З 2 7000 м дымка н/о +10.9 +6.6 75 +10 +10 1025.4 989.9
21 13.10 штиль 0 10 км дымка н/о +11.0 +7.1 77 +10 +10 1025.7 990.2
22 13.10 З 3 15 км н/о +12.2 +7.1 71 +11 +11 1025.6 990.2
23 13.10 З 2 15 км н/о +12.0 +6.9 71 +11 +11 1025.7 990.3
00 14.10 З 2 18 км н/о +11.6 +7.1 74 +11 +11 1026.2 990.7
01 14.10 З 2 17 км н/о +11.6 +7.1 74 +11 +11 1026.3 990.8
02 14.10 З 2 18 км н/о +11.3 +7.2 76 +10 +10 1026.6 991.1
03 14.10 ЮЗ 2 16 км н/о +10.7 +7.4 80 +9 +9 1026.6 991.0
04 14.10 ЮЗ 1 11 км н/о +10.1 +7.5 84 +10 +10 1027.0 991.3
05 14.10 СВ 1 9000 м дымка н/о +10.5 +7.7 83 +10 +10 1027.1 991.5
06 14.10 Ю 1 10 км дымка н/о +9.7 +8.0 89 +9 +9 1027.4 991.7 +9.7 +12.3
07 14.10 ЮЗ 1 12 км н/о +11.3 +8.2 81 +11 +11 1027.2 991.7
08 14.10 З 1 16 км н/о +13.8 +7.8 67 +14 +14 1027.1 991.9
09 14.10 З 4 27 км н/о +15.3 +6.8 57 +14 +14 1026.7 991.7
10 14.10 З 3 30 км н/о +16.2 +6.6 53 +16 +16 1026.6 991.7
11 14.10 З 3 30 км н/о +16.6 +7.8 56 +16 +16 1026.3 991.4
12 14.10 З 2 30 км н/о +16.4 +8.4 59 +17 +17 1026.4 991.5
13 14.10 З 3 26 км н/о +16.1 +9.3 64 +16 +16 1026.5 991.6
14 14.10 З 2 29 км н/о +15.4 +9.7 69 +15 +15 1026.7 991.7
15 14.10 С 1 28 км н/о +15.4 +10.0 70 +16 +16 1026.4 991.4
16 14.10 З 1 12 км н/о +14.2 +9.8 75 +15 +15 1026.7 991.5
17 14.10 С 1 8000 м дымка н/о +13.2 +9.8 80 +13 +13 1027.3 992.0
18 14.10 штиль 0 3600 м дымка н/о +11.4 +9.6 89 +11 +11 1027.5 992.0 +9.6 +17.0
19 14.10 В 1 4400 м дымка н/о +11.2 +9.8 91 +11 +11 1028.0 992.4
20 14.10 ЮЗ 1 2000 м дымка н/о +9.8 +8.6 92 +9 +9 1027.9 992.2
21 14.10 штиль 0 4200 м дымка н/о +10.2 +9.3 94 +9 +9 1028.2 992.5
22 14.10 ЮВ 1 4900 м дымка н/о +10.5 +9.1 91 +10 +10 1028.3 992.6
23 14.10 штиль 0 4000 м дымка н/о +10.5 +9.3 92 +10 +10 1028.2 992.5
00 15.10 штиль 0 3700 м дымка н/о +10.8 +9.6 92 +10 +10 1028.4 992.8
01 15.10 Ю 1 7000 м дымка н/о +11.1 +9.5 90 +11 +11 1028.2 992.6
02 15.10 штиль 0 8000 м дымка н/о +11.6 +9.8 89 +11 +11 1027.9 992.4
03 15.10 ЮЗ 1 6000 м дымка н/о +11.5 +10.1 91 +11 +11 1028.0 992.5
04 15.10 Ю 2 13 км н/о +12.1 +10.5 90 +11 +11 1028.2 992.7
05 15.10 Ю 1 12 км н/о +12.1 +10.3 89 +12 +12 1027.7 992.2
06 15.10 ЮВ 1 10 км н/о +12.2 +10.6 90 +12 +12 1028.1 992.6 +9.4 +12.5
07 15.10 ЮВ 1 15 км н/о +13.5 +11.4 87 +14 +14 1028.4 993.1
08 15.10 Ю 1 20 км н/о +15.3 +12.4 83 +16 +16 1028.3 993.2
09 15.10 штиль 0 16 км н/о +16.2 +12.9 81 +16 +16 1028.4 993.4
10 15.10 З 1 24 км н/о +18.2 +13.1 72 +20 +20 1028.0 993.3
11 15.10 З 3 30 км н/о +19.5 +12.0 62 +21 +21 комфорт 1027.2 992.6
12 15.10 З 3 30 км н/о +20.6 +12.0 58 +23 +23 комфорт 1026.6 992.2
13 15.10 З 5 30 км н/о +21.0 +11.6 55 +23 +23 комфорт 1026.5 992.1
14 15.10 СЗ 2 30 км н/о +21.2 +12.1 56 +23 +23 комфорт 1026.0 991.7
15 15.10 С 2 30 км н/о +19.4 +12.4 64 +21 +21 комфорт 1026.3 991.8
16 15.10 СЗ 1 35 км н/о +16.7 +11.8 73 +18 +18 1027.1 992.2
17 15.10 Ю 1 14 км н/о +15.5 +12.3 81 +16 +16 1027.8 992.8
18 15.10 В 1 5000 м дымка н/о +13.6 +11.6 88 +14 +14 1028.4 993.1 +12.1 +21.5
19 15.10 ЮВ 1 4300 м дымка н/о +12.1 +10.7 91 +12 +12 1028.9 993.4
20 15.10 В 1 3900 м дымка н/о +11.5 +10.4 93 +11 +11 1029.2 993.6
21 15.10 штиль 0 1500 м дымка н/о +10.6 +9.8 95 +10 +10 1029.3 993.6
22 15.10 В 1 3500 м дымка н/о +10.2 +9.4 95 +10 +10 1029.3 993.6
23 15.10 В 1 4900 м дымка н/о +9.5 +8.7 95 +9 +9 1029.3 993.5
00 16.10 штиль 0 100 м пыльная буря н/о +8.2 +7.4 95 +7 +7 1029.5 993.5
01 16.10 штиль 0 400 м сильная пыльная буря н/о +7.5 +6.8 95 +6 +6 1029.2 993.1
02 16.10 ЮВ 1 100 м пыльная буря н/о +7.5 +6.9 96 +6 +6 1029.1 993.0
03 16.10 штиль 0 100 м туман н/о +7.0 +6.6 97 +6 +6 1029.0 992.9
04 16.10 штиль 0 100 м сильная пыльная буря н/о +6.9 +6.5 97 +6 +6 1029.0 992.9
05 16.10 штиль 0 100 м сильная пыльная буря н/о +6.9 +6.5 97 +6 +6 1028.7 992.6
06 16.10 штиль 0 100 м пыльная буря н/о +7.0 +6.7 98 +6 +6 1028.7 992.6 +6.8 +13.8
07 16.10 Ю 1 4200 м пыльная буря н/о +9.4 +9.1 98 +9 +9 1028.2 992.4
08 16.10 Ю 1 9000 м в посл. час морось н/о +13.9 +11.8 87 +14 +14 1027.5 992.3
09 16.10 ЮЗ 1 18 км н/о +17.1 +12.2 73 +18 +18 1026.7 991.9
10 16.10 ЮЗ 1 21 км н/о +20.4 +12.1 59 +23 +23 комфорт 1026.0 991.6
11 16.10 З 1 21 км н/о +22.0 +12.0 53 +24 +24 комфорт 1025.3 991.1
12 16.10 ЮЗ 2 35 км н/о +23.3 +11.0 46 +26 +26 жарко 1024.5 990.5
13 16.10 ЮЗ 1 30 км н/о +24.4 +10.7 42 +26 +26 жарко 1024.1 990.2
14 16.10 ЮЗ 1 30 км н/о +24.7 +12.0 45 +26 +26 жарко 1023.7 989.9
15 16.10 СЗ 1 21 км н/о +22.2 +13.0 56 +25 +25 комфорт 1024.1 990.0
16 16.10 ЮВ 1 13 км н/о +18.8 +13.0 69 +21 +21 комфорт 1024.8 990.2
17 16.10 Ю 1 9000 м н/о +15.5 +12.3 81 +16 +16 1025.8 990.8
18 16.10 ЮВ 1 7000 м дымка н/о +15.0 +12.1 83 +16 +16 1025.8 990.8 +7.0 +24.9
19 16.10 В 1 6000 м дымка н/о +13.6 +11.6 88 +14 +14 1026.1 990.9
20 16.10 В 1 5000 м дымка н/о +12.3 +10.9 91 +12 +12 1026.6 991.2
21 16.10 ЮВ 1 2900 м дымка н/о +11.0 +9.6 91 +11 +11 1027.0 991.4
22 16.10 ЮВ 1 2500 м дымка н/о +9.9 +9.0 94 +9 +9 1027.3 991.6
23 16.10 В 1 1200 м в посл. час морось н/о +8.7 +7.5 92 +8 +8 1027.8 991.9
00 17.10 В 1 600 м пыльная буря н/о +7.9 +7.0 94 +7 +7 1027.9 991.9
01 17.10 С 1 200 м сильная пыльная буря н/о +7.0 +6.3 95 +6 +6 1027.9 991.8
02 17.10 В 1 7000 м в посл. час морось н/о +7.6 +7.0 96 +7 +7 1027.9 991.9
03 17.10 В 2 6000 м в посл. час туман н/о +7.2 +6.6 96 +5 +5 1028.2 992.1
04 17.10 В 1 3900 м пыльная буря н/о +6.0 +5.4 96 +5 +5 1028.3 992.1
05 17.10 штиль 0 800 м сильная пыльная буря н/о +5.9 +5.3 96 +5 +5 1028.1 991.9
06 17.10 штиль 0 3000 м в посл. час морось н/о +5.7 +5.3 97 +5 +5 1028.4 992.1 +5.4 +15.0
07 17.10 штиль 0 7000 м дымка н/о +8.5 +8.2 98 +7 +7 1028.0 992.1
08 17.10 ЮЗ 1 8000 м дым н/о +11.6 +9.8 89 +11 +11 1027.6 992.1
09 17.10 Ю 1 23 км н/о +14.9 +11.1 78 +15 +15 1026.8 991.7
10 17.10 штиль 0 18 км н/о +17.8 +11.4 66 +18 +18 1026.1 991.4
11 17.10 ЮЗ 1 23 км н/о +20.3 +11.8 58 +23 +23 комфорт 1025.1 990.7
12 17.10 ЮЗ 1 26 км н/о +22.1 +9.9 46 +24 +24 комфорт 1024.1 989.9
13 17.10 ЮЗ 1 30 км н/о +22.6 +10.1 45 +24 +24 комфорт 1023.4 989.3
14 17.10 З 1 28 км н/о +23.0 +10.1 44 +25 +25 комфорт 1022.9 988.9
15 17.10 СЗ 1 22 км н/о +20.5 +11.4 56 +23 +23 комфорт 1022.9 988.6
16 17.10 ЮВ 1 12 км н/о +17.4 +11.0 66 +18 +18 1023.3 988.6
17 17.10 Ю 1 8000 м дымка н/о +14.5 +10.3 76 +15 +15 1023.8 988.8

 

Местоположение метеостанции Nowy Sacz (Польша): широта 49.62 долгота 20.70 высота над уровнем моря 295 м.

В архиве по умолчанию представлена погода в Nowy Sacz за последнюю неделю. Архивные данные за месяц целиком и за предыдущие месяцы, начиная с января 2011 года, Вы можете получить, выбрав интересующий диапазон дат из раскрывающегося списка и нажав кнопку "Ввод!".

Внимание! Время в таблицах - всемирное. Для получения местного времени необходимо прибавить поправку, которая в Nowy Sacz равна 1 ч.

Смотрите также архив погоды в соседних городах и на ближайших метеорологических станциях:

Погода в Tarnow (Польша) (50 км)
Погода в Lomnicky Stit (Словакия) (58 км)
Погода в Zakopane (Польша) (64 км)
Погода в Kasprowy Wierch (Польша) (68 км)
Погода в Poprad (Словакия) (69 км)
Погода в Poprad-Ganovce (Словакия) (71 км)
Погода в Strbske Pleso (Словакия) (71 км)
Погода в Krosno (Польша) (76 км)
Погода в Liesek (Словакия) (79 км)
Погода в Presov (Словакия) (80 км)

Пояснения к столбцам:

Ветер - указаны скорость ветра в м/с - средняя за 10 мин, порывы в срок и между сроками (в фигурных скобках) и направление, откуда дует ветер: С - северный, СВ - северо-восточный, В - восточный, ЮВ - юго-восточный, Ю - южный, ЮЗ - юго-западный, З - западный, СЗ - северо-западный.
Видимость - горизонтальная дальность видимости в метрах или километрах. При видимости от 1 до 10 км при отсутствии осадков обычно наблюдается дымка, при ухудшении видимости до 1 км и менее - туман. В сухую погоду видимость может ухудшаться дымом, пылью или мглою.
Явления - указаны атмосферные явления, наблюдавшиеся в срок или в последний час перед сроком; фигурными скобками обозначены явления, наблюдавшиеся между сроками (за 1-3 часа до срока); квадратными скобками обозначены град или гололедные отложения с указанием их диаметра в мм.
Облачность - указаны через наклонную черту общая и нижняя облачность в баллах и высота нижней границы облаков в метрах; квадратными скобками обозначены формы облаков: Ci - перистые, Cs - перисто-слоистые, Cc - перисто-кучевые, Ac - высококучевые, As - высокослоистые, Sc - слоисто-кучевые, Ns - слоисто-дождевые, Cu - кучевые, Cb - кучево-дождевые. Подробнее классификацию облаков см. в Атласе облаков (PDF).
T - Температура воздуха - температура, измеренная на высоте 2 м над землей.
Td - Температура точки росы - температура, при понижении до которой содержащийся в воздухе водяной пар достигнет насыщения.
f - Относительная влажность воздуха - влажноcть воздуха, измеренная на высоте 2 м над землей.
Te - Эффективная температура - температура, которую ощущает одетый по сезону человек в тени. Характеристика душности погоды. При расчете учитывается влияние влажности воздуха и скорости ветра на теплоощущения человека.
Tes - Эффективная температура на солнце - температура, которую ощущает человек, с поправкой на солнечный нагрев. Характеристика знойности погоды. Зависит от высоты солнца над горизонтом, облачности и скорости ветра. Ночью, в пасмурную погоду, а также при ветре 12 м/с и более поправка равна нулю.
P - Атмосферное давление - приведенное к уровню моря атмосферное давление.
Po - Атмосферное давление - измеренное на уровне метеостанции атмосферное давление.
Tmin - Минимальная температура - минимум температуры воздуха на высоте 2 м над землей.
Tmax - Максимальная температура - максимум температуры воздуха на высоте 2 м над землей.
R - Количество осадков - Количество выпавших осадков за период времени, мм. При наведении курсора мыши на число - период времени, за который выпало указанное количество осадков.
R24 - Количество осадков - Количество выпавших осадков за 24 часа, мм.
S - Снежный покров - Высота снежного покрова, см. При наведении курсора мыши на число - состояние снежного покрова и степень покрытия местности в баллах.